User: anonymous   Login
Location: Monroe
(41.9160°N, 83.3980°W)
Time: 01:48:40
(UTC-04:00)
Language:

ISS - Orbit

View from above orbital plane
View from above orbital plane
View from above satellite
View from above satellite

Ground track
Ground track

The orbit data is extracted from the following two-line orbital elements,

1 25544U 98067A   16151.98646193  .00002407  00000-0  42710-4 0  9991
2 25544  51.6431 143.8362 0001750 132.3357 280.2448 15.54711756  2312
Epoch (UTC): 30 May 2016 23:40:30
Eccentricity: 0.0001750
inclination: 51.6431°
perigee height: 402 km
apogee height: 404 km
right ascension of ascending node: 143.8362°
argument of perigee: 132.3357°
revolutions per day: 15.54711756
mean anomaly at epoch: 280.2448°
orbit number at epoch: 231

The dashed part of the orbit path shows where the satellite is in the earth's shadow,  

DLR